Location: Audignicourt
(49.4788°N, 3.1340°E)
Time: 13:11:53
(UTC+00:00)

MetOp-A - Pass Details

Date: 15 May 2026
Orbit: 519 x 765 km, 98.3° (Epoch: 11 June)

Event Time Altitude Azimuth Distance (km) Brightness Sun altitude
Exits shadow 23:43:14 53° 174° (S) 876 3.9 -21.5°
Maximum altitude 23:44:23 83° 254° (WSW) 719 3.7 -21.5°
Drops below altitude 10° 23:49:03 10° 344° (NNW) 2,117 7.3 -21.5°
Sets 23:51:13 0° 345° (NNW) 2,996 8.4 -21.4°
